FW9535 Weather Reports


Display with metric or nautical units.
time (UTC)temp
F
wind
direction
speed
MPH
gust
MPH
rain 1hr
in
rain 24hr
in
rain mn
in
humidity
%
barometer
mb
20260502222106 71 324 7.0 9.0 0.00 0.00 0.00 65 1020.6
20260502220601 70 1 8.0 14.0 0.00 0.00 0.00 66 1020.3
20260502215058 69 19 8.0 11.0 0.00 0.00 0.00 68 1020.3
20260502213555 69 294 5.0 6.0 0.00 0.00 0.00 69 1020.1
20260502212054 69 339 4.0 7.0 0.00 0.00 0.00 69 1019.9
20260502210550 68 71 4.0 6.0 0.00 0.00 0.00 72 1019.7
20260502205047 68 320 6.0 9.0 0.00 0.00 0.00 73 1019.5
20260502203544 68 298 6.0 9.0 0.00 0.00 0.00 75 1019.5
20260502202042 68 20 7.0 8.0 0.00 0.00 0.00 75 1019.6
20260502200542 68 317 5.0 7.0 0.00 0.00 0.00 76 1019.4
20260502195039 68 339 9.0 13.0 0.00 0.00 0.00 76 1019.5
20260502193535 68 304 3.0 6.0 0.00 0.00 0.00 77 1019.4
20260502192031 68 346 3.0 6.0 0.00 0.00 0.00 76 1019.4
20260502190529 68 0 6.0 8.0 0.00 0.00 0.00 76 1019.6
20260502185024 68 324 4.0 5.0 0.00 0.00 0.00 77 1019.8
20260502183524 68 347 2.0 5.0 0.00 0.00 0.00 78 1019.9
20260502182023 68 295 5.0 6.0 0.00 0.00 0.00 77 1019.7
20260502180522 68 30 4.0 6.0 0.00 0.00 0.00 78 1019.7
20260502170511 68 327 7.0 10.0 0.00 0.00 0.00 79 1020.3
20260502163502 68 340 2.0 3.0 0.00 0.00 0.00 80 1020.4
20260502161959 68 338 4.0 6.0 0.00 0.00 0.00 80 1020.8
20260502160457 68 314 4.0 6.0 0.00 0.00 0.00 82 1020.7
20260502151952 68 305 2.0 3.0 0.00 0.00 0.00 81 1021.2
20260502150449 68 291 3.0 5.0 0.00 0.00 0.00 81 1021.1
20260502130427 69 285 5.0 6.0 0.00 0.00 0.00 78 1021.1
20260502123422 68 312 1.0 1.0 0.00 0.00 0.00 79 1021.6
20260502121919 68 323 3.0 5.0 0.00 0.00 0.00 80 1021.7
20260502120416 69 339 8.0 13.0 0.00 0.00 0.00 79 1021.7
20260502114912 69 336 5.0 7.0 0.00 0.00 0.00 79 1021.8
20260502113409 69 298 1.0 2.0 0.00 0.00 0.00 80 1021.8
20260502111908 69 310 1.0 1.0 0.00 0.00 0.00 81 1021.7
20260502110406 69 303 5.0 7.0 0.00 0.00 0.00 81 1021.8
20260502104903 69 327 1.0 2.0 0.00 0.00 0.00 81 1021.8
20260502103401 69 331 2.0 3.0 0.00 0.00 0.00 81 1021.7
20260502101857 69 299 4.0 5.0 0.00 0.00 0.00 82 1021.0
20260502100353 69 326 3.0 5.0 0.00 0.00 0.00 82 1021.2
20260502090343 69 297 2.0 2.0 0.00 0.00 0.00 79 1021.2
20260502070326 70 292 3.0 3.0 0.00 0.00 0.00 84 1020.7
20260502064826 70 32 4.0 6.0 0.00 0.00 0.00 83 1020.6
20260502063325 71 311 0.0 0.0 0.00 0.00 0.00 82 1020.7
20260502061824 71 136 1.0 2.0 0.00 0.00 0.00 81 1020.8
20260502060323 72 328 4.0 5.0 0.00 0.00 0.00 79 1020.8
20260502054819 72 326 2.0 2.0 0.00 0.00 0.00 80 1021.2
20260502053316 72 341 4.0 6.0 0.00 0.00 0.00 79 1020.8
20260502051815 73 314 1.0 2.0 0.00 0.00 0.00 77 1021.0
20260502050312 74 2 7.0 10.0 0.00 0.00 0.00 73 1020.8
20260502044809 73 325 5.0 6.0 0.00 0.00 0.00 76 1020.9
20260502043305 74 355 4.0 6.0 0.00 0.00 0.00 77 1021.0
20260502041805 74 314 5.0 8.0 0.00 0.00 0.00 77 1021.3
20260502040302 75 327 10.0 15.0 0.00 0.00 0.00 73 1021.1
20260502034758 77 288 4.0 7.0 0.00 0.00 0.00 72 1020.9
20260502033257 79 305 3.0 3.0 0.00 0.00 0.00 69 1020.9
20260502031754 80 314 2.0 2.0 0.00 0.00 0.00 63 1020.9
20260502030254 80 284 2.0 3.0 0.00 0.00 0.00 61 1021.3
20260502024752 79 305 5.0 7.0 0.00 0.00 0.00 62 1021.7
20260502023251 78 303 3.0 5.0 0.00 0.00 0.00 64 1022.1
20260502021748 78 319 5.0 8.0 0.00 0.00 0.00 63 1022.3
20260502020245 76 1 3.0 5.0 0.00 0.00 0.00 66 1022.7
20260502014742 76 350 3.0 3.0 0.00 0.00 0.00 67 1022.7
20260502013242 76 318 8.0 10.0 0.00 0.00 0.00 65 1023.2
20260502011740 78 304 4.0 5.0 0.00 0.00 0.00 63 1023.4
20260502010235 77 302 4.0 5.0 0.00 0.00 0.00 65 1023.6
20260502004733 76 336 3.0 6.0 0.00 0.00 0.00 67 1023.8
20260502003230 76 351 3.0 3.0 0.00 0.00 0.00 68 1023.9
20260502001726 77 301 7.0 11.0 0.00 0.00 0.00 65 1024.0
20260502000226 77 320 2.0 3.0 0.00 0.00 0.00 65 1024.0
20260501234724 78 331 4.0 5.0 0.00 0.00 0.00 65 1023.8
20260501233223 77 327 3.0 6.0 0.00 0.00 0.00 64 1024.1
20260501231719 78 287 1.0 1.0 0.00 0.00 0.00 67 1024.4
20260501230219 75 302 3.0 3.0 0.00 0.00 0.00 71 1024.3
20260501224715 69 287 0.0 0.0 0.00 0.00 0.00 84 1024.3
20260501223211 68 270 0.0 1.0 0.00 0.00 0.00 84 1024.2